Location: Fort Wayne
(41.1310°N, 85.1290°W)
Time: 06:02:12
(UTC-05:00)

Meteor 2-10 Rocket - Visible Passes

Search period start: 28 November 2014 00:00
Search period end: 08 December 2014 00:00
Orbit: 735 x 885 km, 81.2° (Epoch: 27 November)

Date Brightness Start Highest point End Pass type
(mag) Time Alt. Az. Time Alt. Az. Time Alt. Az.
28 Nov 3.8 05:03:10 72° ENE 05:03:16 72° E 05:08:36 10° SSE visible
28 Nov 5.2 06:44:26 14° W 06:44:31 14° W 06:47:08 10° WSW visible
28 Nov 3.8 17:59:07 10° S 18:04:51 78° E 18:10:42 10° NNE visible
28 Nov 6.5 19:44:21 10° W 19:47:38 15° WNW 19:50:55 10° NNW visible
29 Nov 4.8 04:40:52 36° SE 04:40:52 36° SE 04:44:15 10° SSE visible
29 Nov 5.1 06:22:07 17° WSW 06:22:07 17° WSW 06:24:20 10° SW visible
29 Nov 3.9 17:35:10 10° S 17:40:46 57° E 17:46:28 10° NNE visible
29 Nov 6.1 19:19:00 10° WSW 19:23:14 21° WNW 19:27:31 10° NNW visible
30 Nov 5.9 04:18:27 17° SE 04:18:27 17° SE 04:19:43 10° SE visible
30 Nov 5.3 05:59:43 16° SW 05:59:43 16° SW 06:01:04 10° SW visible
30 Nov 5.7 18:54:01 10° SW 18:58:55 28° WNW 19:03:51 10° NNW visible
01 Dec 5.7 05:37:12 12° SSW 05:37:12 12° SSW 05:37:30 10° SSW visible
01 Dec 5.2 18:29:18 10° SW 18:34:38 38° WNW 18:40:01 10° N visible
02 Dec 4.7 18:04:47 10° SSW 18:10:24 51° WNW 18:16:04 10° N visible
03 Dec 4.2 17:40:27 10° SSW 17:46:13 71° W 17:52:02 10° N visible
04 Dec 6.4 19:02:00 10° W 19:04:54 14° WNW 19:07:48 10° NNW visible
05 Dec 6.3 18:36:30 10° WSW 18:40:30 19° WNW 18:44:32 10° NNW visible
06 Dec 5.9 18:11:26 10° SW 18:16:10 26° WNW 18:20:55 10° NNW visible
07 Dec 5.4 17:46:38 10° SW 17:51:52 34° WNW 17:57:07 10° N visible
